Погода в Большой Орше

Россия / Республика Марий Эл     56°55′18″N   47°49′36″E
темп.,
°C
ветер,
м/с
пор.,
м/с
влажн.,
%
обл.,
%
осадки,
мм/ч
давл.,
гПа
погр.,
м
12 апреля, пн
пн1200:000ссз12100100 0.0 103571
03:00+1ссв1299100 0.0 1037112
06:00+1св25100100 0.0 1038166
09:00+3всв3598100 0.0 1039229
12:00+4всв3598100 0.0 1039270
15:00+5в3699100 0.0 1040295
18:00+3в3999100 0.0 1039288
21:00+3вюв3998100 0.0 1039207
13 апреля, вт
вт1300:00+2вюв3119983 0.0 1038206
03:00+3вюв3995100 0.0 1037190
06:00+3юв3994100 0.0 1036171
09:00+8ююв4788100 0.0 1035240
12:00+13ю4778100 0.0 1033528
15:00+16ю476999 0.0 1032909
18:00+12ю378677 0.0 1031133
21:00+9ю3108945 0.0 1031157
14 апреля, ср
ср1400:00+8ююз389049 0.0 1030126
03:00+6ююз34875 0.0 103050
06:00+6ю248250 0.0 103064
09:00+12ю356054 0.0 1029310
12:00+16ююз454713 0.0 1027789
15:00+17ююз454342 0.0 10261101
18:00+13ю34607 0.0 102559
21:00+9ю376659 0.0 1025107
15 апреля, чт
чт1500:00+7ю357289 0.0 102464
03:00+6ю2379100 0.0 102334
06:00+6ю248275 0.0 102265
09:00+12ююз3462100 0.0 1021333
12:00+16ююз3445100 0.0 10201061
15:00+17юз343872 0.0 10181500
18:00+14з225322 0.0 101714
21:00+11зюз11604 0.0 101610
16 апреля, пт
пт1600:00+9зюз22672 0.0 101610
03:00+6ссз22795 0.0 101515
06:00+5с5995100 0.0 1016319
09:00+5с6989100 0.0 1018634
12:00+3ссв61195100 0.0 1019653
15:00+6ссв61065100 0.1 10201393
18:00+6с61059100 0.1 10201043
21:00+2ссв61273100 0.1 1022909